Regional Weather Roundup
Issued by NWS

Home | Current Version | Previous Version | Graphics & Text | Print | Product List | Glossary On
Versions: 1 2 3 4 5 6 7 8 9 10 11 12 13 14 15 16 17 18 19 20 21 22 23 24 25 26 27 28 29 30 31 32 33 34 35 36 37 38 39 40 41 42 43 44 45 46 47 48 49 50
000
ASUS45 KPSR 210110
RWRAZ

ARIZONA HOURLY REGIONAL WEATHER ROUNDUP
NATIONAL WEATHER SERVICE PHOENIX AZ
600 PM MST SUN MAY 20 2018

NOTE: FAIR INDICATES FEW OR NO CLOUDS BELOW 12,000 FEET WITH NO
SIGNIFICANT WEATHER AND/OR OBSTRUCTIONS TO VISIBILITY.

AZZ001>003-036-210200-
NORTHWEST ARIZONA

CITY           SKY/WX    TMP DP  RH WIND       PRES   REMARKS
BULLHEAD CITY  SUNNY     93  34  12 S16       29.64S
KINGMAN        MOSUNNY   82  28  14 SW23      29.82F
$$

AZZ004>008-015-016-018-210200-
NORTH CENTRAL ARIZONA

CITY           SKY/WX    TMP DP  RH WIND       PRES   REMARKS
GRAND CANYON   PTSUNNY   70   9   9 SW21G30   30.01S
WILLIAMS       MOSUNNY   68   9  10 SW12G22   30.01R
PRESCOTT       MOSUNNY   75  11   8 S14G23    29.94F
FLAGSTAFF      PTSUNNY   65  15  14 SW14G24   30.06S
PAYSON         PTSUNNY   77   9   7 SW10      29.96S
PAGE           PTSUNNY   82  26  13 NE3       29.80F
$$

AZZ009>014-017-210200-
NORTHEAST ARIZONA

CITY           SKY/WX    TMP DP  RH WIND       PRES   REMARKS
WINSLOW        MOSUNNY   82  15   8 S22G31    29.92R
SAINT JOHNS    MOSUNNY   79   9   7 W18       29.94S
WINDOW ROCK    PTSUNNY   74   1   6 SW16G22   30.01S
SHOW LOW       MOSUNNY   73   9   8 S18G24    30.03S
$$

AZZ540-542>544-546-548-210200-
GREATER PHOENIX AREA

CITY           SKY/WX    TMP DP  RH WIND       PRES   REMARKS
PHOENIX        PTSUNNY   94  19   6 W7        29.68F
BUCKEYE        MOSUNNY   91  27   9 SW6       29.71S
GLENDALE       MOSUNNY   95  14   5 SW10      29.71F
LUKE AFB       MOSUNNY   94  17   6 SW12      29.69F
DEER VALLEY    MOSUNNY   91  19   7 W10G18    29.72F
SCOTTSDALE     MOSUNNY   93  27   9 W8        29.73F
MESA-FALCON    MOSUNNY   95  18   6 S10       29.72F
MESA-GATEWAY   SUNNY     95  18   6 W12G20    29.72
CHANDLER       SUNNY     95  10   4 S12       29.70F
$$

AZZ539-553-210200-
SOUTHWEST MARICOPA COUNTY AND PINAL COUNTY

CITY           SKY/WX    TMP DP  RH WIND       PRES   REMARKS
CASA GRANDE    SUNNY     95  18   6 SW9G17    29.72S
GILA BEND      FAIR      95  17   6 SW20      29.68S
$$

AZZ503-504-507>509-210200-
SOUTHEAST ARIZONA

CITY           SKY/WX    TMP DP  RH WIND       PRES   REMARKS
TUCSON         SUNNY     93  -1   3 SW8       29.80S
DAVIS-MONTHAN  SUNNY     95   8   4 SW10G18   29.79S
RYAN FIELD     SUNNY     93   1   3 SW10      29.79F
NOGALES        SUNNY     85  -1   3 S13       29.90S
SIERRA VISTA   SUNNY     84   6   5 W8        29.95S
DOUGLAS        SUNNY     86   8   5 W15       29.90S
SAFFORD        SUNNY     92  -1   3 S8G17     29.78F
$$

AZZ532-210200-
SOUTHWEST ARIZONA

CITY           SKY/WX    TMP DP  RH WIND       PRES   REMARKS
YUMA           MOSUNNY   93  38  14 S15       29.67F
$$

CAZ041-043-047-048-061-525>527-560>570-210200-
SOUTHERN CALIFORNIA

CITY           SKY/WX    TMP DP  RH WIND       PRES   REMARKS
DOWNTOWN L.A.  MOSUNNY   65  54  67 CALM      29.88S
L.A. AIRPORT   PTSUNNY   63  53  70 W15       29.90S
SAN DIEGO      CLOUDY    63  55  75 W7        29.92F
BURBANK        PTSUNNY   65  54  67 S10       29.87F
ONTARIO        PTSUNNY   68  53  58 SW14      29.87S
RIVERSIDE      MOSUNNY   68  54  60 W13G23    29.87S
PALM SPRINGS   SUNNY     90  48  23 N18G24    29.68F
EL CENTRO NAS  SUNNY     94  36  13 W18       29.66S
IMPERIAL       MOSUNNY   92  43  18 W14       29.63F
BLYTHE         MOSUNNY   94  41  16 SW16      29.65F
NEEDLES        SUNNY     96  31  10 S14       29.66F
$$

NVZ020-UTZ003-210200-
SOUTHERN NEVADA-UTAH

CITY           SKY/WX    TMP DP  RH WIND       PRES   REMARKS
LAS VEGAS      PTSUNNY   90  33  13 S10       29.67S
SALT LAKE CITY PTSUNNY   67  47  48 S6        29.91R
$$

NMZ009-TXZ055-210200-
NEW MEXICO-WEST TEXAS

CITY           SKY/WX    TMP DP  RH WIND       PRES   REMARKS
ALBUQUERQUE    MOSUNNY   82  20  10 S16G28    29.97S
EL PASO        MOSUNNY   87  41  19 E14       29.89S
$$


........................KEY........................
SKY/WX - SKY CONDITION/WEATHER
TMP    - TEMPERATURE IN FAHRENHEIT
DP     - DEW POINT IN FAHRENHEIT
RH     - RELATIVE HUMIDITY IN PERCENT
WIND   - DIRECTION AND SPEED IN MILES PER HOUR (MPH)
VRB    - VARIABLE WIND DIRECTION
PRES   - MEAN SEA LEVEL PRESSURE IN INCHES OF MERCURY
         F - FALLING PRESSURE   R - RISING PRESSURE
         S - STEADY PRESSURE
VSB    - VISIBILITY IN MILES
HX     - HEAT INDEX IN FAHRENHEIT
WCI    - WIND CHILL INDEX IN FAHRENHEIT
TC     - TEMPERATURE IN CELSIUS WHICH IS ALSO KNOWN AS
         TEMPERATURE IN CENTIGRADE
AFB    - AIR FORCE BASE
         LUKE AFB IS LUKE AIR FORCE BASE
         DAVIS-MONTHAN IS DAVIS-MONTHAN AIR FORCE BASE
NAS    - NAVAL AIR STATION
         EL CENTRO NAS IS EL CENTRO NAVAL AIR STATION
N/A    - NOT AVAILABLE




USA.gov is the U.S. government's official web portal to all federal, state and local government web resources and services.